Regional Weather Roundup
Issued by NWS Green Bay, WI

Home | Current Version | Previous Version | Graphics & Text | Print | Product List | Glossary Off
Versions: 1 2 3 4 5 6 7 8 9 10 11 12 13 14 15 16 17 18 19 20 21 22 23 24 25 26 27 28 29 30 31 32 33 34 35 36 37 38 39 40 41 42 43 44 45 46 47 48 49 50

000
ASUS43 KGRB 232200
RWRGRB

NORTH-CENTRAL AND NORTHEAST WISCONSIN REGIONAL WEATHER ROUNDUP
NATIONAL WEATHER SERVICE GREEN BAY WI
500 PM CDT FRI JUN 23 2017

WIZ005-009-010>012-018-019-232300-
NORTH CENTRAL WISCONSIN

CITY           SKY/WX    TMP DP  RH WIND       PRES   REMARKS
IRONWOOD       CLOUDY    65  49  56 W10       29.72R
MANITOWISH WTR NOT AVBL
ARBOR VITAE    NOT AVBL
EAGLE RIVER    NOT AVBL
LAND O LAKES   MOSUNNY   67  45  43 W9G22     29.71S
RHINELANDER    MOSUNNY   66  48  52 NW13      29.71S
PHILLIPS       NOT AVBL
ANTIGO         NOT AVBL
TOMAHAWK       NOT AVBL
MERRILL        CLOUDY    67  50  55 NW8G18    29.72R
$$

WIZ013-073-232300-
NORTHEAST WISCONSIN

CITY           SKY/WX    TMP DP  RH WIND       PRES   REMARKS
IRON MOUNTAIN  PTSUNNY   73  45  36 W18G25    29.64R
MARINETTE      MOSUNNY   75  51  43 VRB5      29.63R
$$

WIZ017-030-035>037-045-232300-
CENTRAL WISCONSIN

CITY           SKY/WX    TMP DP  RH WIND       PRES   REMARKS
MEDFORD        NOT AVBL
WAUSAU         CLOUDY    70  52  52 W17       29.71R
MOSINEE        NOT AVBL
MARSHFIELD     CLOUDY    69  53  56 W13G21    29.74R
WISC RAPIDS    LGT RAIN  69  53  56 W8        29.75R
STEVENS POINT  NOT AVBL
WAUPACA        CLOUDY    74  51  45 W15       29.71R
SHAWANO        NOT AVBL
CLINTONVILLE   NOT AVBL
WAUTOMA        NOT AVBL
$$

WIZ038-039-048-051-232300-
FOX VALLEY

CITY           SKY/WX    TMP DP  RH WIND       PRES   REMARKS
NWS GREEN BAY  PTSUNNY   75  56  51 NW16G23   29.66R
APPLETON       PTSUNNY   72  46  40 W17G25    29.69R
OSHKOSH        PTSUNNY   73  53  49 NW20      29.69R
FOND DU LAC    SUNNY     75  51  43 NW13G23   29.69R
$$

WIZ022-050-052-232300-
EAST CENTRAL WISCONSIN

CITY           SKY/WX    TMP DP  RH WIND       PRES   REMARKS
EPHRAIM        NOT AVBL
WASHINGTON ISL NOT AVBL
STURGEON BAY     N/A     73  54  51 NW15        N/A
MANITOWOC      SUNNY     76  49  38 W14G23    29.66R
SHEBOYGAN      PTSUNNY   76  55  48 NW16G23   29.67R
$$

LMZ563-521-522-541>543-232300-
LAKESHORE

STATION/POSITION TIME  TEMP    WIND        PRES    VSBY  WAVE
                       AIR SEA DIR/SP/G                  HT/PER
                 (UTC) (F)     (DEG/KT/KT) (MB)    (MI)  (FT/S)
SHEBOYGAN LKSHOR 2100   77     270/ 16/ 20 1003.5S
KEWAUNEE LKSHORE 2130   77     290/ 13/ 18 1003.3R
NORTHPORT PIER   2140   72     310/  9/ 15 1002.7R
N MID LAKE BUOY  2050   61 56  190/ 10/ 12 1002.5F         1
S GREEN BAY BUOY 2130   72     280/ 16/ 19 1003.5R
CHAMBERS ISLAND  2140   74     310/  6/ 10 1002.7R
MENOMINEE LKSHOR 2124          290/ 11/ 19 1002.6
$$




USA.gov is the U.S. government's official web portal to all federal, state and local government web resources and services.